Regional Weather Roundup
Issued by NWS Burlington, VT

Home | Current Version | Previous Version | Text Only | Print | Product List | Glossary On
Versions: 1 2 3 4 5 6 7 8 9 10 11 12 13 14 15 16 17 18 19 20 21 22 23 24 25 26 27 28 29 30 31 32 33 34 35 36 37 38 39 40 41 42 43 44 45 46 47 48 49 50
000
ASUS41 KBTV 040210
RWRBTV
VERMONT REGIONAL WEATHER ROUNDUP
NATIONAL WEATHER SERVICE BURLINGTON VT
1000 PM EDT THU SEP 03 2015

NOTE: "FAIR" INDICATES FEW OR NO CLOUDS BELOW 12,000 FEET WITH NO
SIGNIFICANT WEATHER AND/OR OBSTRUCTIONS TO VISIBILITY.

* THESE REPORTS ARE NOT UNDER NWS QUALITY CONTROL AND/OR DO NOT
  REPORT WEATHER SUCH AS PRECIPITATION AND FOG.

VTZ001>019-040300-
_____VERMONT_____


CITY           SKY/WX    TMP DP  RH WIND       PRES   REMARKS
BURLINGTON     PTCLDY    66  54  65 CALM      29.99R
MONTPELIER     PTCLDY    65  56  72 CALM      30.05R
MORRISVILLE    PTCLDY    61  56  83 CALM      30.03R
ST. JOHNSBURY*   N/A     64  59  83 MISG      29.99R
LYNDONVILLE*   FAIR      63  51  64 CALM      30.04R
MIDDLEBURY*    FAIR      65  65 100 CALM      29.98R
RUTLAND*       PTCLDY    70  10  10 N3        29.98R
SPRINGFIELD    FAIR      68  67  96 CALM      29.97R FOG
HIGHGATE*      FAIR      61  53  76 E3        30.00R
NEWPORT*       FAIR      61  53  76 CALM      30.03R
BENNINGTON     CLEAR     68  66  93 CALM      29.96R FOG
SUTTON*          N/A     59 N/A N/A MISG        N/A

_____LAKE CHAMPLAIN_____


CITY           SKY/WX    TMP DP  RH WIND       PRES   REMARKS

$$

NYZ007-026>031-035-052-083-040300-
_____NORTHERN NEW YORK_____


CITY           SKY/WX    TMP DP  RH WIND       PRES   REMARKS
PLATTSBURGH    PTCLDY    65  59  81 CALM      30.00R
SARANAC LAKE   CLEAR     57  55  93 N3        30.04R
MASSENA        CLEAR     64  61  90 CALM      29.99R
OGDENSBURG*    CLEAR     64  63  94 CALM      29.98S
POTSDAM*       CLEAR     63  63 100 CALM      30.00R
WATERTOWN      CLEAR     65  63  93 E3        29.97R FOG
FT DRUM        CLEAR     68  65  89 NE3       29.98R
ALBANY         PTCLDY    73  66  78 N5        29.94R
GLENS FALLS    PTCLDY    72  61  68 N8        29.96R

$$
NHZ002-005-011-040300-
_____NEW HAMPSHIRE_____


CITY           SKY/WX    TMP DP  RH WIND       PRES   REMARKS
LEBANON        CLEAR     67  64  90 CALM      29.96R
KEENE          CLOUDY    72  64  78 CALM      29.94R
MT WASHINGTON  PTCLDY    54  41  62 VRB1        N/A
PLYMOUTH       MOCLDY    69  64  84 CALM      29.95R
WHITEFIELD     PTCLDY    60  57  89 CALM      30.01R

$$

_____REGIONAL QUEBEC LOCATIONS_____


CITY           SKY/WX    TMP DP  RH WIND       PRES   REMARKS
MONTREAL       CLEAR     70  48  46 NE8       30.01R
QUEBEC CITY    CLEAR     61  52  72 N5        30.04R
SHERBROOKE     CLEAR     55  52  88 E3        30.01R

_____REGIONAL ONTARIO LOCATIONS_____


CITY           SKY/WX    TMP DP  RH WIND       PRES   REMARKS
OTTAWA         CLEAR     68  57  68 N7        30.01R

______KEY______
VSB  - VISIBILITY IN MILES
WCI  - WIND CHILL INDEX
HX   - HEAT INDEX
$$
NNNN



USA.gov is the U.S. government's official web portal to all federal, state and local government web resources and services.